Regional Weather Roundup
Issued by NWS Nashville, TN

Home | Current Version | Previous Version | Text Only | Print | Product List | Glossary On
Versions: 1 2 3 4 5 6 7 8 9 10 11 12 13 14 15 16 17 18 19 20 21 22 23 24 25 26 27 28 29 30 31 32 33 34 35 36 37 38 39 40 41 42 43 44 45 46 47 48 49 50
000
ASUS44 KOHX 062215
RWROHX
MIDDLE TENNESSEE HOURLY WEATHER ROUNDUP
NATIONAL WEATHER SERVICE NASHVILLE TN
500 PM CDT WED MAY 06 2015

NOTE: "FAIR" INDICATES FEW OR NO CLOUDS BELOW 12,000 FEET WITH
NO SIGNIFICANT WEATHER AND/OR OBSTRUCTIONS TO VISIBILITY.

* THESE REPORTS ARE NOT UNDER NWS QUALITY CONTROL AND MAY NOT
  REPORT WEATHER SUCH AS PRECIPITATION AND FOG.


TNZ005>011-023>034-057-059-062>066-078-080-062300
...NORTHERN MIDDLE TENNESSEE...

CITY           SKY/WX    TMP DP  RH WIND       PRES   REMARKS
CLARKSVILLE    SUNNY     81  57  43 SE5       30.08F
CROSSVILLE     SUNNY     81  43  26 MISG      30.14F
LIVINGSTON     SUNNY     81  56  42 N3        30.13S
NASHVILLE      MOSUNNY   83  51  33 CALM      30.09F
PORTLAND       SUNNY     82  55  39 SE5       30.09F
ROCKWOOD       SUNNY     82  51  34 S5        30.13S
SMYRNA         MOSUNNY   86  54  33 E5        30.09F
SPARTA         SUNNY     84  59  42 W3        30.10S
$$
TNZ056-058-060-061-075>077-079-093>097-062300
...SOUTHERN MIDDLE TENNESSEE...

CITY           SKY/WX    TMP DP  RH WIND       PRES   REMARKS
COLUMBIA       SUNNY     82  55  39 E7        30.08S
LEWISBURG      MOSUNNY   83  51  32 SE5       30.09F
MCMINNVILLE    MOSUNNY   82  57  42 CALM      30.11R
SHELBYVILLE    SUNNY     84  57  39 CALM      30.11S
TULLAHOMA      MOSUNNY   81  48  32 S7        30.12S
WINCHESTER     SUNNY     82  50  32 S9        30.11S
$$


...KEY TO REMARKS...
VSB - VISIBILITY IN MILES
WCI - WIND CHILL INDEX
HX  - HEAT INDEX




USA.gov is the U.S. government's official web portal to all federal, state and local government web resources and services.